,Q_in,Q_out,T_int,T_ext
,W/m2,W/m2,Deg C,Deg C
,Avg,Avg,Avg,Avg
2012-04-20 16:45:00,0.713,10.063,19,12.4
2012-04-20 16:50:00,0.824,10.396,19,12.3
2012-04-20 16:55:00,0.792,9.414,19,12.2
2012-04-20 17:00:00,0.666,10.19,18.9,12.3
2012-04-20 17:05:00,-0.618,10.602,18.9,12.2
2012-04-20 17:10:00,-0.523,12.029,18.9,12.3
2012-04-20 17:15:00,-0.444,10.777,18.8,12
2012-04-20 17:20:00,-0.301,10.761,18.8,12.2
2012-04-20 17:25:00,-0.063,11.569,18.8,12.1
2012-04-20 17:30:00,-0.111,10.824,18.8,12.1
2012-04-20 17:35:00,0.254,11.03,18.8,12
2012-04-20 17:40:00,0.174,10.903,18.8,12
2012-04-20 17:45:00,0.254,9.62,18.8,12.1
2012-04-20 17:50:00,0.444,10.967,18.8,11.9
2012-04-20 17:55:00,0.618,9.525,18.8,12
2012-04-20 18:00:00,0.301,10.428,18.8,11.9
2012-04-20 18:05:00,-0.365,9.683,18.8,12
2012-04-20 18:10:00,-0.349,10.507,18.8,11.9
2012-04-20 18:15:00,-0.095,10.761,18.7,11.9
2012-04-20 18:20:00,-0.032,9.762,18.7,12
2012-04-20 18:25:00,0.158,10.713,18.7,11.8
2012-04-20 18:30:00,0.222,9.842,18.7,12
2012-04-20 18:35:00,0.269,11.442,18.7,11.8
2012-04-20 18:40:00,0.349,9.794,18.7,11.9
2012-04-20 18:45:00,0.46,10.555,18.7,11.8
2012-04-20 18:50:00,0.475,9.81,18.7,11.8
2012-04-20 18:55:00,0.602,9.826,18.7,11.9
2012-04-20 19:00:00,0.729,10.032,18.6,11.6
2012-04-20 19:05:00,0.127,9.398,18.6,11.9
2012-04-20 19:10:00,0.174,10.143,18.6,11.8
2012-04-20 19:15:00,0.222,8.732,18.6,11.9
2012-04-20 19:20:00,0.317,10.38,18.6,11.8
2012-04-20 19:25:00,0.539,9.35,18.5,11.8
2012-04-20 19:30:00,0.428,8.938,18.5,11.9
2012-04-20 19:35:00,0.65,10.143,18.5,11.8
2012-04-20 19:40:00,0.491,8.605,18.5,11.9
2012-04-20 19:45:00,0.666,10.428,18.5,11.6
2012-04-20 19:50:00,0.745,8.78,18.5,11.9
2012-04-20 19:55:00,0.555,9.493,18.5,11.8
2012-04-20 20:00:00,0.745,8.526,18.5,11.8
2012-04-20 20:05:00,-0.571,8.067,18.5,11.9
2012-04-20 20:10:00,-0.238,8.542,18.5,11.9
2012-04-20 20:15:00,-0.158,7.718,18.5,12.1
2012-04-20 20:20:00,-0.016,9.176,18.5,11.9
2012-04-20 20:25:00,0.174,7.385,18.5,12.1
2012-04-20 20:30:00,0.19,8.7,18.5,11.9
2012-04-20 20:35:00,0.174,7.369,18.5,12.1
2012-04-20 20:40:00,0.206,8.352,18.5,12
2012-04-20 20:45:00,0.238,9.002,18.5,12
2012-04-20 20:50:00,0.428,7.433,18.5,12.1
2012-04-20 20:55:00,0.46,8.7,18.5,12
2012-04-20 21:00:00,0.602,7.021,18.5,12.2
2012-04-20 21:05:00,0.428,7.401,18.6,12.1
2012-04-20 21:10:00,0.872,5.103,18.6,12.4
2012-04-20 21:15:00,0.634,6.149,18.6,12.3
2012-04-20 21:20:00,0.666,5.277,18.6,12.5
2012-04-20 21:25:00,0.745,5.975,18.6,12.5
2012-04-20 21:30:00,0.935,6.577,18.6,12.5
2012-04-20 21:35:00,1.014,5.055,18.6,12.6
2012-04-20 21:40:00,0.84,6.561,18.6,12.5
2012-04-20 21:45:00,1.078,5.119,18.7,12.7
2012-04-20 21:50:00,0.856,6.355,18.7,12.4
2012-04-20 21:55:00,0.856,5.404,18.6,12.7
2012-04-20 22:00:00,1.3,4.754,18.6,12.5
2012-04-20 22:05:00,2.868,3.328,18.8,12.9
2012-04-20 22:10:00,2.615,1.965,18.8,12.7
2012-04-20 22:15:00,2.314,3.17,18.8,13
2012-04-20 22:20:00,2.282,1.632,18.8,12.9
2012-04-20 22:25:00,2.298,3.106,18.8,13
2012-04-20 22:30:00,2.124,1.696,18.8,13
2012-04-20 22:35:00,2.139,2.837,18.8,13
2012-04-20 22:40:00,1.981,1.585,18.8,13.2
2012-04-20 22:45:00,2.203,3.09,18.9,12.9
2012-04-20 22:50:00,1.87,2.488,18.9,13.2
2012-04-20 22:55:00,1.87,3.043,18.9,13
2012-04-20 23:00:00,2.219,1.838,18.9,13.2
2012-04-20 23:05:00,3.534,0.269,18.9,13.2
2012-04-20 23:10:00,2.964,0.46,18.9,13.4
2012-04-20 23:15:00,3.09,-0.507,19,13.4
2012-04-20 23:20:00,2.552,1.094,19,13.4
2012-04-20 23:25:00,2.884,-0.301,19,13.4
2012-04-20 23:30:00,2.631,0.967,19,13.5
2012-04-20 23:35:00,2.758,-0.048,19,13.6
2012-04-20 23:40:00,2.504,0.824,19,13.4
2012-04-20 23:45:00,2.631,0.602,19,13.7
2012-04-20 23:50:00,2.298,0.887,19,13.5
2012-04-20 23:55:00,2.409,1.49,19,13.7
2012-04-21 00:00:00,2.409,0.095,19,13.6
2012-04-21 00:05:00,2.884,-0.444,19,13.9
2012-04-21 00:10:00,2.504,-2.124,19,13.9
2012-04-21 00:15:00,2.726,-0.729,19,13.9
2012-04-21 00:20:00,2.425,-2.044,19,13.9
2012-04-21 00:25:00,2.726,0.032,19,14
2012-04-21 00:30:00,2.361,-1.949,19,14.2
2012-04-21 00:35:00,2.393,-0.333,19,13.9
2012-04-21 00:40:00,2.124,-1.727,19,14.2
2012-04-21 00:45:00,2.33,-0.983,19,14
2012-04-21 00:50:00,2.266,-0.84,19,14.2
2012-04-21 00:55:00,2.25,-1.458,19,14
2012-04-21 01:00:00,2.076,-1.331,19,14.3
2012-04-21 01:05:00,2.33,-3.756,19,14.4
2012-04-21 01:10:00,2.235,-2.425,19,14.5
2012-04-21 01:15:00,2.266,-3.677,19,14.5
2012-04-21 01:20:00,2.044,-2.155,19,14.5
2012-04-21 01:25:00,2.266,-3.978,19,14.6
2012-04-21 01:30:00,1.965,-2.393,19,14.6
2012-04-21 01:35:00,2.314,-2.884,19,14.8
2012-04-21 01:40:00,1.918,-2.726,19,14.5
2012-04-21 01:45:00,2.203,-2.868,19,14.8
2012-04-21 01:50:00,1.791,-2.853,19,14.6
2012-04-21 01:55:00,2.139,-1.981,19,14.9
2012-04-21 02:00:00,1.791,-4.057,19,14.7
2012-04-21 02:05:00,2.108,-3.502,19,15.5
2012-04-21 02:10:00,2.108,-5.372,19,15.3
2012-04-21 02:15:00,1.807,-3.756,19,15.6
2012-04-21 02:20:00,1.807,-5.436,19,15.4
2012-04-21 02:25:00,1.918,-4.2,19,15.8
2012-04-21 02:30:00,1.997,-5.563,19,15.5
2012-04-21 02:35:00,1.933,-3.962,19,15.8
2012-04-21 02:40:00,2.076,-4.897,19,15.6
2012-04-21 02:45:00,2.076,-3.803,19,15.9
2012-04-21 02:50:00,2.06,-4.564,19,15.6
2012-04-21 02:55:00,1.759,-3.946,19,15.9
2012-04-21 03:00:00,2.029,-6.577,19,15.7
2012-04-21 03:05:00,1.87,-9.445,19,16.1
2012-04-21 03:10:00,1.886,-10.713,19,15.9
2012-04-21 03:15:00,2.06,-9.303,19.1,16.2
2012-04-21 03:20:00,2.06,-10.206,19.1,15.9
2012-04-21 03:25:00,1.886,-9.16,19.1,16.2
2012-04-21 03:30:00,2.25,-8.922,19.1,16
2012-04-21 03:35:00,1.807,-8.193,19.1,16.4
2012-04-21 03:40:00,2.029,-8.875,19.1,16
2012-04-21 03:45:00,1.949,-7.876,19.1,16.4
2012-04-21 03:50:00,2.029,-8.067,19.1,16.1
2012-04-21 03:55:00,2.013,-8.146,19.1,16.4
2012-04-21 04:00:00,2.33,-8.273,19.1,16.2
2012-04-21 04:05:00,2.647,-8.59,19.1,16.6
2012-04-21 04:10:00,2.52,-9.208,19.1,16.4
2012-04-21 04:15:00,2.567,-8.558,19.1,16.6
2012-04-21 04:20:00,2.599,-9.033,19.1,16.5
2012-04-21 04:25:00,2.456,-7.94,19.1,16.7
2012-04-21 04:30:00,2.488,-8.193,19.1,16.5
2012-04-21 04:35:00,2.361,-7.971,19.1,16.8
2012-04-21 04:40:00,2.266,-8.067,19.1,16.5
2012-04-21 04:45:00,2.361,-7.306,19.1,16.9
2012-04-21 04:50:00,2.124,-8.59,19.1,16.6
2012-04-21 04:55:00,2.361,-7.575,19.1,16.8
2012-04-21 05:00:00,2.219,-9.081,19.1,16.6
2012-04-21 05:05:00,2.155,-8.352,19.1,16.8
2012-04-21 05:10:00,2.187,-9.857,19.1,16.6
2012-04-21 05:15:00,2.33,-7.876,19.1,16.7
2012-04-21 05:20:00,2.108,-9.588,19.1,16.7
2012-04-21 05:25:00,2.219,-7.639,19.1,16.7
2012-04-21 05:30:00,2.219,-8.669,19.1,16.7
2012-04-21 05:35:00,2.298,-7.163,19.1,16.7
2012-04-21 05:40:00,2.171,-8.558,19.1,16.7
2012-04-21 05:45:00,2.155,-7.005,19.1,16.7
2012-04-21 05:50:00,2.282,-8.352,19.1,16.7
2012-04-21 05:55:00,2.139,-6.83,19.1,16.7
2012-04-21 06:00:00,2.345,-8.257,19.1,16.8
2012-04-21 06:05:00,2.029,-6.434,19.1,16.8
2012-04-21 06:10:00,2.108,-7.686,19.1,16.8
2012-04-21 06:15:00,2.187,-5.246,19.1,16.8
2012-04-21 06:20:00,2.139,-7.417,19.1,16.8
2012-04-21 06:25:00,1.854,-5.483,19.1,16.8
2012-04-21 06:30:00,2.282,-7.1,19.1,16.8
2012-04-21 06:35:00,1.933,-4.612,19.1,16.8
2012-04-21 06:40:00,2.06,-7.021,19.1,16.9
2012-04-21 06:45:00,1.997,-4.612,19.1,16.9
2012-04-21 06:50:00,2.029,-7.227,19.1,16.9
2012-04-21 06:55:00,1.981,-4.691,19.1,16.9
2012-04-21 07:00:00,2.298,-7.116,19.1,16.9
2012-04-21 07:05:00,2.71,-5.04,19.3,16.8
2012-04-21 07:10:00,2.647,-6.751,19.3,16.8
2012-04-21 07:15:00,2.583,-4.897,19.3,16.9
2012-04-21 07:20:00,2.409,-6.719,19.3,16.8
2012-04-21 07:25:00,2.71,-4.723,19.3,17
2012-04-21 07:30:00,2.282,-6.799,19.3,16.8
2012-04-21 07:35:00,2.456,-4.564,19.3,16.9
2012-04-21 07:40:00,2.314,-6.704,19.3,16.8
2012-04-21 07:45:00,2.33,-4.105,19.3,16.9
2012-04-21 07:50:00,2.298,-6.482,19.3,16.7
2012-04-21 07:55:00,2.155,-4.247,19.3,16.9
2012-04-21 08:00:00,2.552,-6.244,19.4,16.7
2012-04-21 08:05:00,3.471,-3.978,19.4,16.9
2012-04-21 08:10:00,3.17,-6.07,19.4,16.6
2012-04-21 08:15:00,3.296,-4.2,19.5,16.9
2012-04-21 08:20:00,2.979,-5.594,19.5,16.6
2012-04-21 08:25:00,3.059,-4.216,19.5,16.9
2012-04-21 08:30:00,2.853,-5.563,19.5,16.6
2012-04-21 08:35:00,2.9,-3.693,19.5,16.9
2012-04-21 08:40:00,2.789,-5.531,19.5,16.5
2012-04-21 08:45:00,2.821,-3.867,19.5,16.8
2012-04-21 08:50:00,2.742,-4.675,19.5,16.6
2012-04-21 08:55:00,2.71,-3.455,19.5,16.7
2012-04-21 09:00:00,2.979,-3.883,19.5,16.5
2012-04-21 09:05:00,3.914,-2.615,19.6,16.5
2012-04-21 09:10:00,3.471,-3.407,19.6,16.4
2012-04-21 09:15:00,3.582,-3.17,19.6,16.4
2012-04-21 09:20:00,3.249,-2.853,19.7,16.5
2012-04-21 09:25:00,3.391,-2.789,19.7,16.3
2012-04-21 09:30:00,2.964,-2.853,19.7,16.4
2012-04-21 09:35:00,3.09,-2.884,19.7,16.2
2012-04-21 09:40:00,2.995,-2.441,19.7,16.5
2012-04-21 09:45:00,3.043,-3.233,19.7,16.2
2012-04-21 09:50:00,2.742,-2.536,19.7,16.4
2012-04-21 09:55:00,2.758,-3.93,19.8,16.2
2012-04-21 10:00:00,2.979,-1.585,19.8,16.4
2012-04-21 10:05:00,3.883,-0.602,19.8,16
2012-04-21 10:10:00,3.518,0.539,19.8,16
2012-04-21 10:15:00,3.613,-1.521,19.8,16
2012-04-21 10:20:00,3.391,0.444,19.8,16
2012-04-21 10:25:00,3.391,-1.03,19.8,16
2012-04-21 10:30:00,3.138,0.285,19.8,15.9
2012-04-21 10:35:00,3.201,-0.428,19.8,16
2012-04-21 10:40:00,3.122,-0.254,19.9,15.7
2012-04-21 10:45:00,2.932,-0.792,19.9,16
2012-04-21 10:50:00,3.074,-0.475,19.9,15.7
2012-04-21 10:55:00,2.995,-0.681,19.9,15.9
2012-04-21 11:00:00,3.17,-0.428,19.9,15.7
2012-04-21 11:05:00,3.455,2.472,19.9,15.6
2012-04-21 11:10:00,3.328,1.3,19.9,15.6
2012-04-21 11:15:00,3.138,2.393,19.9,15.5
2012-04-21 11:20:00,3.249,0.681,19.9,15.6
2012-04-21 11:25:00,3.122,2.266,19.9,15.3
2012-04-21 11:30:00,3.09,0.729,19.9,15.5
2012-04-21 11:35:00,2.995,1.997,19.9,15.3
2012-04-21 11:40:00,2.868,1.696,19.9,15.5
2012-04-21 11:45:00,2.742,1.379,19.9,15.3
2012-04-21 11:50:00,2.789,2.108,19.9,15.5
2012-04-21 11:55:00,2.9,0.983,19.9,15.4
2012-04-21 12:00:00,2.868,2.868,19.9,15.2
2012-04-21 12:05:00,2.71,3.249,19.9,15.1
2012-04-21 12:10:00,2.694,5.119,19.9,14.9
2012-04-21 12:15:00,2.456,2.726,19.9,15
2012-04-21 12:20:00,2.71,4.152,19.9,14.9
2012-04-21 12:25:00,2.441,2.916,19.9,14.8
2012-04-21 12:30:00,2.615,3.708,19.8,14.9
2012-04-21 12:35:00,2.425,3.724,19.8,14.7
2012-04-21 12:40:00,2.345,2.853,19.8,14.9
2012-04-21 12:45:00,2.409,3.645,19.8,14.7
2012-04-21 12:50:00,2.345,2.694,19.8,14.7
2012-04-21 12:55:00,2.52,3.439,19.8,14.8
2012-04-21 13:00:00,2.171,3.582,19.8,14.6
2012-04-21 13:05:00,1.743,5.975,19.8,14.6
2012-04-21 13:10:00,1.854,6.593,19.8,14.5
2012-04-21 13:15:00,1.648,5.468,19.8,14.5
2012-04-21 13:20:00,1.807,6.672,19.7,14.5
2012-04-21 13:25:00,1.965,5.246,19.7,14.3
2012-04-21 13:30:00,1.838,6.387,19.7,14.5
2012-04-21 13:35:00,1.759,5.594,19.7,14.3
2012-04-21 13:40:00,1.759,4.818,19.7,14.4
2012-04-21 13:45:00,1.902,6.212,19.7,14.3
2012-04-21 13:50:00,1.759,4.469,19.7,14.2
2012-04-21 13:55:00,2.029,6.006,19.7,14.4
2012-04-21 14:00:00,1.743,5.959,19.6,14
2012-04-21 14:05:00,0.777,6.276,19.5,13.7
2012-04-21 14:10:00,0.792,7.242,19.5,13.7
2012-04-21 14:15:00,0.998,6.133,19.5,13.4
2012-04-21 14:20:00,0.887,6.878,19.5,13.5
2012-04-21 14:25:00,1.062,6.022,19.5,13.4
2012-04-21 14:30:00,1.189,6.783,19.5,13.2
2012-04-21 14:35:00,1.3,6.783,19.5,13.4
2012-04-21 14:40:00,1.062,5.705,19.4,13.1
2012-04-21 14:45:00,1.157,6.894,19.4,13.2
2012-04-21 14:50:00,1.204,5.737,19.4,13.1
2012-04-21 14:55:00,1.379,6.228,19.4,12.9
2012-04-21 15:00:00,1.204,8.558,19.4,13.1
2012-04-21 15:05:00,-0.206,11.125,19.3,12.9
2012-04-21 15:10:00,-0.333,12.504,19.3,12.9
2012-04-21 15:15:00,-0.206,13.217,19.3,12.8
2012-04-21 15:20:00,-0.016,11.616,19.3,12.6
2012-04-21 15:25:00,0.301,12.108,19.3,12.8
2012-04-21 15:30:00,0.349,11.189,19.3,12.7
2012-04-21 15:35:00,0.333,11.22,19.3,12.7
2012-04-21 15:40:00,0.697,11.823,19.3,12.7
2012-04-21 15:45:00,0.634,10.761,19.3,12.5
2012-04-21 15:50:00,0.729,11.426,19.3,12.7
2012-04-21 15:55:00,0.903,10.523,19.2,12.5
2012-04-21 16:00:00,0.729,10.539,19.2,12.5
2012-04-21 16:05:00,-0.048,12.155,19.1,12.4
2012-04-21 16:10:00,-0.412,10.602,19.1,12.3
2012-04-21 16:15:00,-0.111,11.807,19.1,12.3
2012-04-21 16:20:00,0.222,11.03,19.1,12.3
2012-04-21 16:25:00,0.063,10.983,19,12.1
2012-04-21 16:30:00,0.396,11.458,19,12.2
2012-04-21 16:35:00,0.602,10.428,19,12.1
2012-04-21 16:40:00,0.713,11.157,19,12.1
2012-04-21 16:45:00,0.571,11.141,19,12.2
2012-04-21 16:50:00,0.539,10.127,19,12.1
2012-04-21 16:55:00,0.729,10.602,19,12.2
2012-04-21 17:00:00,0.475,10.46,18.9,12.1
2012-04-21 17:05:00,-0.666,11.886,18.9,12
2012-04-21 17:10:00,-0.697,12.552,18.9,12.1
2012-04-21 17:15:00,-0.475,11.046,18.9,11.8
2012-04-21 17:20:00,-0.222,12.029,18.8,12
2012-04-21 17:25:00,-0.127,11.601,18.8,11.9
2012-04-21 17:30:00,-0.158,10.681,18.8,11.8
2012-04-21 17:35:00,-0.111,11.49,18.8,12
2012-04-21 17:40:00,0.254,10.523,18.8,11.7
2012-04-21 17:45:00,0.206,11.823,18.8,12
2012-04-21 17:50:00,0.555,10.618,18.8,11.9
2012-04-21 17:55:00,0.475,9.746,18.8,11.6
2012-04-21 18:00:00,0.285,11.22,18.8,11.9
2012-04-21 18:05:00,-0.697,9.889,18.8,11.7
2012-04-21 18:10:00,-0.586,11.252,18.8,11.7
2012-04-21 18:15:00,-0.333,11.426,18.8,11.8
2012-04-21 18:20:00,-0.048,10.285,18.8,11.6
2012-04-21 18:25:00,-0.063,12.235,18.8,11.8
2012-04-21 18:30:00,0.143,9.889,18.7,11.7
2012-04-21 18:35:00,0.301,10.602,18.7,11.7
2012-04-21 18:40:00,0.19,10.84,18.7,11.8
2012-04-21 18:45:00,0.269,9.493,18.7,11.5
2012-04-21 18:50:00,0.555,11.014,18.7,11.7
2012-04-21 18:55:00,0.555,10,18.7,11.6
2012-04-21 19:00:00,0.238,9.715,18.6,11.6
2012-04-21 19:05:00,0.016,11.109,18.6,11.7
2012-04-21 19:10:00,0.158,9.952,18.6,11.5
2012-04-21 19:15:00,0.222,9.842,18.6,11.7
2012-04-21 19:20:00,0.206,10.618,18.5,11.6
2012-04-21 19:25:00,0.491,8.97,18.5,11.7
2012-04-21 19:30:00,0.412,11.141,18.5,11.7
2012-04-21 19:35:00,0.238,8.922,18.5,11.6
2012-04-21 19:40:00,0.681,9.477,18.5,11.8
2012-04-21 19:45:00,0.586,9.857,18.5,11.6
2012-04-21 19:50:00,0.539,8.32,18.5,11.7
2012-04-21 19:55:00,0.666,9.762,18.5,11.7
2012-04-21 20:00:00,0.428,8.146,18.5,11.5
2012-04-21 20:05:00,-0.412,8.986,18.5,11.9
2012-04-21 20:10:00,-0.713,8.447,18.5,11.8
2012-04-21 20:15:00,-0.269,8.082,18.5,11.9
2012-04-21 20:20:00,0.048,9.398,18.5,12
2012-04-21 20:25:00,-0.206,7.496,18.5,11.8
2012-04-21 20:30:00,0.032,8.716,18.5,12
2012-04-21 20:35:00,0.127,7.417,18.5,11.8
2012-04-21 20:40:00,0.238,7.433,18.5,12.1
2012-04-21 20:45:00,0.301,8.605,18.5,12
2012-04-21 20:50:00,0.523,7.036,18.5,11.8
2012-04-21 20:55:00,0.38,8.273,18.5,12.1
2012-04-21 21:00:00,0.555,6.957,18.5,11.8
2012-04-21 21:05:00,0.475,5.927,18.6,12.3
2012-04-21 21:10:00,0.681,6.545,18.6,12.2
2012-04-21 21:15:00,0.808,4.58,18.6,12.2
2012-04-21 21:20:00,0.507,6.117,18.6,12.4
2012-04-21 21:25:00,0.681,5.103,18.6,12.3
2012-04-21 21:30:00,0.666,5.499,18.6,12.5
2012-04-21 21:35:00,0.919,6.197,18.7,12.3
2012-04-21 21:40:00,0.681,4.548,18.7,12.5
2012-04-21 21:45:00,0.951,6.212,18.7,12.5
2012-04-21 21:50:00,0.887,5.357,18.6,12.5
2012-04-21 21:55:00,0.792,5.578,18.6,12.5
2012-04-21 22:00:00,1.331,4.992,18.7,12.4
2012-04-21 22:05:00,2.647,2.25,18.8,12.8
2012-04-21 22:10:00,2.235,3.423,18.8,12.6
2012-04-21 22:15:00,2.092,2.076,18.8,12.9
2012-04-21 22:20:00,2.108,3.36,18.8,12.7
2012-04-21 22:25:00,2.171,2.092,18.8,12.8
2012-04-21 22:30:00,2.108,2.108,18.8,12.8
2012-04-21 22:35:00,2.092,2.631,18.8,12.8
2012-04-21 22:40:00,1.965,1.521,18.8,13
2012-04-21 22:45:00,2.171,3.328,18.9,12.8
2012-04-21 22:50:00,1.712,1.712,18.9,13
2012-04-21 22:55:00,1.521,3.059,18.9,12.8
2012-04-21 23:00:00,2.25,1.252,18.9,13.1
2012-04-21 23:05:00,3.455,1.046,18.9,13.2
2012-04-21 23:10:00,2.884,0.887,18.9,13.2
2012-04-21 23:15:00,2.979,0.491,18.9,13.4
2012-04-21 23:20:00,2.821,2.235,19,13.2
2012-04-21 23:25:00,2.678,-0.158,19,13.5
2012-04-21 23:30:00,2.567,2.092,19,13.2
2012-04-21 23:35:00,2.409,-0.048,19,13.5
2012-04-21 23:40:00,2.456,1.727,19,13.4
2012-04-21 23:45:00,2.393,0.571,19,13.5
2012-04-21 23:50:00,2.409,1.284,19,13.6
2012-04-21 23:55:00,2.108,1.49,19,13.4
2012-04-22 00:00:00,2.266,-0.872,19,13.6
2012-04-22 00:05:00,2.694,-0.412,19,13.6
2012-04-22 00:10:00,2.552,-2.409,19,13.9
2012-04-22 00:15:00,2.361,-1.22,19,13.7
2012-04-22 00:20:00,2.504,-1.537,19,13.9
2012-04-22 00:25:00,2.282,-1.204,19,13.9
2012-04-22 00:30:00,2.377,-0.444,19,14
2012-04-22 00:35:00,2.155,-1.759,19,14
2012-04-22 00:40:00,2.377,-0.444,19,14
2012-04-22 00:45:00,2.33,-1.712,19,14.1
2012-04-22 00:50:00,2.33,-0.586,19,14
2012-04-22 00:55:00,2.155,-1.49,19,14.2
2012-04-22 01:00:00,2.029,-1.68,19,13.9
2012-04-22 01:05:00,2.076,-2.805,19,14.4
2012-04-22 01:10:00,2.029,-4.152,19,14.3
2012-04-22 01:15:00,2.235,-2.076,19,14.6
2012-04-22 01:20:00,1.886,-3.835,19,14.4
2012-04-22 01:25:00,2.076,-1.997,19,14.6
2012-04-22 01:30:00,1.854,-4.2,19,14.5
2012-04-22 01:35:00,1.981,-1.854,19,14.6
2012-04-22 01:40:00,1.918,-3.708,19,14.5
2012-04-22 01:45:00,2.029,-2.235,19,14.7
2012-04-22 01:50:00,1.775,-3.328,19,14.6
2012-04-22 01:55:00,2.044,-2.33,19,14.6
2012-04-22 02:00:00,1.933,-2.773,19,14.8
2012-04-22 02:05:00,1.933,-4.517,19,15.1
2012-04-22 02:10:00,1.854,-4.358,19,15.4
2012-04-22 02:15:00,2.076,-5.055,19,15.3
2012-04-22 02:20:00,2.013,-4.279,19,15.5
2012-04-22 02:25:00,1.886,-5.721,19,15.5
2012-04-22 02:30:00,1.933,-3.629,19,15.6
2012-04-22 02:35:00,2.139,-5.246,19,15.6
2012-04-22 02:40:00,1.918,-2.694,19,15.8
2012-04-22 02:45:00,1.933,-4.865,19,15.8
2012-04-22 02:50:00,1.949,-2.773,19,15.8
2012-04-22 02:55:00,1.933,-4.612,19,15.8
2012-04-22 03:00:00,2.029,-6.149,19,15.8
2012-04-22 03:05:00,2.044,-10.174,19,16
2012-04-22 03:10:00,1.886,-11.268,19,16
2012-04-22 03:15:00,1.965,-8.796,19,16.1
2012-04-22 03:20:00,1.886,-11.094,19.1,16.1
2012-04-22 03:25:00,1.838,-8.574,19.1,16.2
2012-04-22 03:30:00,2.044,-10.254,19.1,16.1
2012-04-22 03:35:00,2.092,-8.51,19.1,16.3
2012-04-22 03:40:00,1.838,-9.857,19.1,16.1
2012-04-22 03:45:00,1.965,-7.971,19.1,16.4
2012-04-22 03:50:00,1.933,-9.81,19.1,16.2
2012-04-22 03:55:00,1.87,-7.242,19.1,16.5
2012-04-22 04:00:00,2.108,-9.223,19.1,16.2
2012-04-22 04:05:00,2.647,-8.051,19.1,16.6
2012-04-22 04:10:00,2.361,-9.905,19.1,16.4
2012-04-22 04:15:00,2.393,-7.987,19.1,16.7
2012-04-22 04:20:00,2.488,-10.444,19.1,16.4
2012-04-22 04:25:00,2.266,-7.623,19.1,16.7
2012-04-22 04:30:00,2.393,-9.731,19.1,16.4
2012-04-22 04:35:00,2.33,-7.718,19.1,16.7
2012-04-22 04:40:00,2.33,-9.382,19.1,16.5
2012-04-22 04:45:00,2.108,-7.75,19.1,16.8
2012-04-22 04:50:00,2.25,-8.843,19.1,16.6
2012-04-22 04:55:00,2.266,-7.274,19.1,16.8
2012-04-22 05:00:00,2.266,-8.558,19.1,16.6
2012-04-22 05:05:00,1.981,-8.304,19.1,16.8
2012-04-22 05:10:00,2.235,-10.174,19.1,16.5
2012-04-22 05:15:00,2.171,-8.685,19.1,16.8
2012-04-22 05:20:00,2.155,-8.938,19.1,16.6
2012-04-22 05:25:00,2.108,-8.146,19.1,16.8
2012-04-22 05:30:00,1.949,-8.494,19.1,16.6
2012-04-22 05:35:00,2.187,-8.051,19.1,16.9
2012-04-22 05:40:00,1.886,-8.906,19.1,16.6
2012-04-22 05:45:00,2.06,-7.306,19.1,16.9
2012-04-22 05:50:00,1.933,-8.526,19.1,16.6
2012-04-22 05:55:00,2.25,-7.591,19.1,16.9
2012-04-22 06:00:00,1.838,-7.639,19.1,16.6
2012-04-22 06:05:00,2.013,-6.513,19.1,16.9
2012-04-22 06:10:00,1.902,-7.163,19.1,16.6
2012-04-22 06:15:00,2.219,-6.64,19.1,16.9
2012-04-22 06:20:00,1.775,-6.83,19.1,16.7
2012-04-22 06:25:00,2.298,-6.323,19.1,16.9
2012-04-22 06:30:00,1.791,-6.672,19.1,16.7
2012-04-22 06:35:00,1.87,-6.767,19.1,16.9
2012-04-22 06:40:00,1.918,-6.292,19.1,16.7
2012-04-22 06:45:00,2.266,-6.513,19.2,16.9
2012-04-22 06:50:00,1.949,-5.959,19.2,16.7
2012-04-22 06:55:00,2.044,-6.292,19.2,16.9
2012-04-22 07:00:00,1.949,-6.197,19.2,16.7
2012-04-22 07:05:00,2.789,-6.181,19.2,16.9
2012-04-22 07:10:00,2.441,-5.88,19.3,16.8
2012-04-22 07:15:00,2.409,-6.038,19.3,16.9
2012-04-22 07:20:00,2.266,-5.721,19.3,16.8
2012-04-22 07:25:00,2.52,-6.117,19.3,16.9
2012-04-22 07:30:00,2.314,-5.42,19.3,16.9
2012-04-22 07:35:00,2.298,-5.594,19.3,16.9
2012-04-22 07:40:00,2.425,-4.754,19.3,16.9
2012-04-22 07:45:00,2.235,-5.483,19.3,16.8
2012-04-22 07:50:00,2.377,-5.119,19.3,16.9
2012-04-22 07:55:00,2.171,-5.895,19.3,16.8
2012-04-22 08:00:00,2.631,-4.929,19.3,16.9
2012-04-22 08:05:00,3.376,-5.895,19.4,16.7
2012-04-22 08:10:00,3.281,-4.358,19.4,16.8
2012-04-22 08:15:00,3.106,-5.658,19.5,16.6
2012-04-22 08:20:00,3.074,-3.788,19.5,16.8
2012-04-22 08:25:00,2.853,-5.975,19.5,16.6
2012-04-22 08:30:00,2.995,-3.819,19.5,16.8
2012-04-22 08:35:00,2.536,-5.531,19.5,16.5
2012-04-22 08:40:00,2.868,-3.978,19.5,16.8
2012-04-22 08:45:00,2.678,-5.23,19.5,16.6
2012-04-22 08:50:00,2.868,-3.455,19.5,16.7
2012-04-22 08:55:00,2.441,-5.325,19.5,16.7
2012-04-22 09:00:00,2.821,-3.249,19.5,16.6
2012-04-22 09:05:00,3.645,-3.899,19.6,16.5
2012-04-22 09:10:00,3.265,-2.187,19.6,16.3
2012-04-22 09:15:00,3.502,-3.376,19.7,16.4
2012-04-22 09:20:00,3.376,-2.472,19.7,16.2
2012-04-22 09:25:00,3.154,-2.916,19.7,16.4
2012-04-22 09:30:00,3.027,-3.09,19.7,16.2
2012-04-22 09:35:00,2.948,-2.171,19.7,16.3
2012-04-22 09:40:00,3.027,-3.027,19.7,16.2
2012-04-22 09:45:00,2.868,-1.965,19.7,16.3
2012-04-22 09:50:00,2.9,-3.566,19.7,16.2
2012-04-22 09:55:00,2.884,-1.506,19.8,16.2
2012-04-22 10:00:00,3.059,-2.567,19.8,16.3
2012-04-22 10:05:00,3.899,0.46,19.8,15.9
2012-04-22 10:10:00,3.471,-0.634,19.8,16.1
2012-04-22 10:15:00,3.55,0.555,19.8,15.8
2012-04-22 10:20:00,3.376,-0.38,19.8,15.9
2012-04-22 10:25:00,3.344,-0.396,19.8,15.9
2012-04-22 10:30:00,3.296,0.333,19.8,15.9
2012-04-22 10:35:00,3.376,-0.887,19.9,15.9
2012-04-22 10:40:00,2.995,0,19.9,15.7
2012-04-22 10:45:00,3.027,-1.284,19.9,15.9
2012-04-22 10:50:00,2.853,0.254,19.9,15.7
2012-04-22 10:55:00,2.964,-0.903,19.9,15.8
2012-04-22 11:00:00,2.9,0.681,19.9,15.7
2012-04-22 11:05:00,3.233,1.284,19.9,15.6
2012-04-22 11:10:00,3.106,1.854,19.9,15.6
2012-04-22 11:15:00,3.249,2.029,19.9,15.4
2012-04-22 11:20:00,3.185,1.3,19.9,15.5
2012-04-22 11:25:00,3.074,2.599,19.9,15.4
2012-04-22 11:30:00,2.821,0.729,19.9,15.4
2012-04-22 11:35:00,2.916,2.266,19.9,15.4
2012-04-22 11:40:00,2.948,1.49,19.9,15.2
2012-04-22 11:45:00,2.726,1.315,19.9,15.4
2012-04-22 11:50:00,2.583,2.092,19.9,15.2
2012-04-22 11:55:00,2.821,0.745,19.9,15.4
2012-04-22 12:00:00,2.694,3.106,19.9,15.3
2012-04-22 12:05:00,2.631,2.995,19.9,14.9
2012-04-22 12:10:00,2.583,4.406,19.9,15
2012-04-22 12:15:00,2.615,3.851,19.9,14.8
2012-04-22 12:20:00,2.409,3.772,19.8,14.8
2012-04-22 12:25:00,2.615,4.326,19.8,14.9
2012-04-22 12:30:00,2.425,3.043,19.9,14.7
2012-04-22 12:35:00,2.345,4.231,19.8,14.8
2012-04-22 12:40:00,2.235,3.106,19.8,14.7
2012-04-22 12:45:00,2.345,3.772,19.9,14.7
2012-04-22 12:50:00,2.456,3.613,19.8,14.8
2012-04-22 12:55:00,2.472,2.314,19.8,14.5
2012-04-22 13:00:00,1.981,4.374,19.8,14.6
2012-04-22 13:05:00,1.68,5.8,19.8,14.4
2012-04-22 13:10:00,1.854,6.133,19.8,14.4
2012-04-22 13:15:00,1.664,6.83,19.7,14.4
2012-04-22 13:20:00,1.712,5.119,19.7,14.3
2012-04-22 13:25:00,1.664,6.529,19.7,14.4
2012-04-22 13:30:00,1.902,5.515,19.7,14.4
2012-04-22 13:35:00,1.823,5.515,19.7,14.2
2012-04-22 13:40:00,1.648,6.181,19.7,14.3
2012-04-22 13:45:00,1.87,5.135,19.7,14.2
2012-04-22 13:50:00,1.648,5.642,19.7,14.1
2012-04-22 13:55:00,1.696,5.61,19.7,14.3
2012-04-22 14:00:00,1.331,5.721,19.6,14
2012-04-22 14:05:00,0.681,8.051,19.6,13.6
2012-04-22 14:10:00,0.697,6.862,19.5,13.6
2012-04-22 14:15:00,0.872,6.561,19.5,13.4
2012-04-22 14:20:00,0.903,7.195,19.5,13.4
2012-04-22 14:25:00,0.919,5.689,19.5,13.4
2012-04-22 14:30:00,1.03,6.91,19.5,13.2
2012-04-22 14:35:00,1.046,5.864,19.5,13.2
2012-04-22 14:40:00,1.062,5.737,19.5,13.1
2012-04-22 14:45:00,1.236,6.466,19.4,13.1
2012-04-22 14:50:00,1.204,5.626,19.4,13.2
2012-04-22 14:55:00,1.236,5.832,19.4,13
2012-04-22 15:00:00,1.046,8.082,19.4,13.1
2012-04-22 15:05:00,-0.095,11.204,19.3,12.9
2012-04-22 15:10:00,-0.349,12.377,19.3,12.7